[[{"header":{"parameterUnit":"m.s-1","parameterCategory":2,"la1":30.2991,"la2":30.254,"lo1":-89.0895,"lo2":-89.0444,"dy":0.0017,"dx":0.0017,"nx":28,"ny":28,"refTime":"2025-11-23T09:00:00:Z","depth":"0","parameterNumber":2,"parameterNumberName":"U-component_of_CURRENTS"},"data":[0,0,0,0,0,0,0,0,0,0,0,0,0,0,0,0,0,0,0,0,0,0,0,0,0,0,0,0,0,0,0,0,0,0,0,0,0,0,0,0,0,0,0,0,0,0,0,0,0,0,0,0,0,0,0,0,0,0,0.3771,0.3772,0,0.3816,0.3816,0.3816,0.3764,0.3762,0.3761,0.376,0.3763,0.3764,0.3765,0,0,0,0,0,0,0,0,0,0,0,0,0,0.364,0.3642,0.3771,0.3772,0.3774,0.3816,0.3816,0.3816,0.3764,0.3762,0.3761,0.3759,0.3762,0.3764,0.3765,0,0,0,0,0,0,0,0,0,0,0,0,0,0.3684,0.3642,0.3771,0.3759,0.3759,0.3817,0.3816,0.3816,0.3764,0.3762,0.376,0.3759,0.3762,0.3764,0.3766,0.3814,0,0,0.3771,0.3772,0,0,0,0,0,0,0,0,0.3682,0.3688,0.3759,0.376,0.376,0.379,0.3771,0.3816,0.3765,0.3754,0.376,0.3758,0.3775,0.3775,0.3777,0.3814,0.3814,0.3771,0.3772,0.3773,0.3774,0,0,0,0,0,0,0,0.3679,0.3686,0.3781,0.3761,0.3761,0.3752,0.3755,0.3779,0.3767,0.3754,0.3753,0.3771,0.3773,0.3775,0.3777,0.3814,0.3771,0.3773,0.3774,0.3775,0.3928,0.3931,0,0,0,0,0,0,0.3692,0.3684,0.378,0.3783,0.3725,0.3756,0.376,0.3775,0.3767,0.3767,0.3773,0.3769,0.3773,0.3775,0.3777,0.3863,0.3773,0.3775,0.3776,0.3925,0.3929,0.3932,0,0,0,0,0,0,0.3689,0.37,0.3778,0.374,0.3751,0.3761,0.3779,0.3777,0.3782,0.3783,0.378,0.378,0.3772,0.3774,0.3818,0.3861,0.3776,0.3777,0.3922,0.3926,0.3931,0.4017,0,0,0,0,0,0,0.3685,0.3699,0.3713,0.3742,0.3754,0.3821,0.3782,0.378,0.38,0.3795,0.3789,0.3787,0.377,0.3816,0.382,0.3862,0.3779,0.3918,0.3924,0.3929,0.4011,0.4024,0.4036,0,0,0,0,0,0.368,0.3706,0.3713,0.3725,0.3773,0.3824,0.3829,0.3824,0.3803,0.3817,0.3821,0.3787,0.3853,0.382,0.3824,0.3868,0.3915,0.3922,0.3929,0.4005,0.4021,0.4035,0,0,0,0,0,0,0.3651,0.3705,0.3712,0.3752,0.3793,0.3818,0.3836,0.3836,0.385,0.3843,0.3827,0.3827,0.3883,0.3873,0.3836,0.3932,0.388,0.3887,0.3936,0.3952,0.3964,0.3976,0.378,0,0,0,0,0,0.3658,0.3691,0.3742,0.3774,0.3798,0.382,0.384,0.3845,0.3866,0.3868,0.3869,0.3882,0.3917,0.3929,0.3952,0.4006,0.4018,0.4039,0.4052,0.4062,0.4078,0.4152,0.4172,0.3954,0.3954,0.3954,0,0,0.3656,0.3692,0.3709,0.3772,0.3797,0.3846,0.3824,0.3866,0.3905,0.3871,0.3915,0.3928,0.3944,0.4003,0.4027,0.3996,0.4132,0.4071,0.4079,0.409,0.4161,0.4182,0.42,0.3959,0.3958,0.3957,0,0,0.3675,0.3704,0.374,0.3782,0.3842,0.3868,0.3887,0.3928,0.3941,0.3998,0.399,0.4037,0.407,0.4101,0.4118,0.4221,0.4198,0.4223,0.4292,0.4363,0.4381,0.4397,0.4436,0.4455,0.4225,0.4225,0.4225,0,0.3668,0.3722,0.3759,0.3809,0.3848,0.3883,0.3932,0.3969,0.4017,0.4049,0.4021,0.4117,0.4122,0.4218,0.425,0.4249,0.4273,0.4227,0.4379,0.4395,0.441,0.4446,0.4466,0.423,0.423,0.4229,0.4229,0,0.3717,0.3763,0.3791,0.3867,0.3916,0.3966,0.4032,0.4077,0.4098,0.4135,0.4226,0.4249,0.4303,0.432,0.4313,0.4433,0.441,0.4387,0.4335,0.4437,0.4468,0.4488,0.4237,0.4236,0.4234,0.4233,0,0,0.3685,0.38,0.3808,0.3848,0.3949,0.3988,0.408,0.417,0.4233,0.4282,0.4365,0.4435,0.4448,0.4473,0.4482,0.4543,0.4664,0.4513,0.4515,0.4543,0.481,0.4729,0.4741,0.4667,0.4671,0.4674,0.4787,0,0.3707,0.3799,0.3858,0.3942,0.3995,0.4066,0.4148,0.4235,0.4309,0.44,0.4457,0.4537,0.4509,0.4544,0.4609,0.4657,0.4719,0.4635,0.4715,0.4717,0.4626,0.4763,0.4598,0.468,0.4805,0.4808,0.481,0,0.3726,0.379,0.3871,0.3983,0.4012,0.4066,0.4198,0.4276,0.4426,0.4494,0.4596,0.4639,0.4757,0.4705,0.4848,0.4795,0.4817,0.484,0.4844,0.4753,0.4674,0.4601,0.4709,0.4615,0.4839,0.4837,0.4835,0,0.3673,0.3791,0.3848,0.3887,0.4023,0.4067,0.414,0.4291,0.4378,0.4555,0.4631,0.4774,0.4837,0.4915,0.4957,0.4919,0.5094,0.5041,0.499,0.4983,0.485,0.4825,0.4867,0.5148,0.5148,0.5147,0.5147,0,0.3668,0.3713,0.3819,0.3851,0.3927,0.4027,0.413,0.4244,0.4411,0.4527,0.4657,0.4775,0.4895,0.4993,0.5022,0.5073,0.5149,0.5039,0.5028,0.4874,0.4851,0.4765,0.4708,0.5151,0.515,0.515,0.5149,0,0.3605,0.3677,0.3743,0.3865,0.3902,0.3948,0.4106,0.419,0.4355,0.4514,0.4572,0.48,0.4942,0.5029,0.5169,0.5138,0.507,0.5191,0.4988,0.495,0.4781,0.4734,0.4607,0.4466,0.5164,0.5163,0.5162,0,0.3585,0.361,0.3721,0.3758,0.3807,0.3894,0.3965,0.4147,0.4248,0.4523,0.4591,0.4793,0.4923,0.5095,0.5125,0.518,0.5033,0.502,0.4918,0.4786,0.4727,0.4551,0.4427,0.4778,0.4775,0.4771,0.4769,0,0.3547,0.3574,0.3631,0.3702,0.3761,0.3833,0.3942,0.4015,0.423,0.4363,0.4558,0.4686,0.4888,0.4907,0.4985,0.4994,0.4791,0.4953,0.4887,0.4502,0.4245,0.4096,0.4673,0.474,0.4743,0.4745,0.4747,0.4748,0.3503,0.3523,0.3588,0.3641,0.3704,0.3747,0.3755,0.3887,0.4008,0.4155,0.4387,0.4481,0.4659,0.4768,0.4753,0.4641,0.4604,0.4503,0.4482,0.4334,0.4118,0.462,0.4624,0.4626,0.4628,0.463,0.4631,0,0.3446,0.348,0.3531,0.3577,0.358,0.3646,0.3719,0.3694,0.3749,0.3934,0.4052,0.418,0.4243,0.4351,0.4371,0.4211,0.402,0.409,0.3825,0.3744,0.4275,0.418,0.4001,0.4001,0.4002,0.4002,0.4002,0.4002,0.3423,0.3438,0.3456,0.3433,0.3446,0.3387,0.3376,0.3367,0.3439,0.3475,0.3523,0.3649,0.3983,0.4178,0.4077,0.3946,0.3628,0.3461,0.3445,0.3863,0.39,0.3934,0.3834,0.3586,0.3585,0.2765,0.2759,0.2754]},{"header":{"parameterUnit":"m.s-1","parameterCategory":2,"la1":30.2991,"la2":30.254,"lo1":-89.0895,"lo2":-89.0444,"dy":0.0017,"dx":0.0017,"nx":28,"ny":28,"refTime":"2025-11-23T09:00:00:Z","depth":"0","parameterNumber":3,"parameterNumberName":"V-component_of_CURRENTS"},"data":[0,0,0,0,0,0,0,0,0,0,0,0,0,0,0,0,0,0,0,0,0,0,0,0,0,0,0,0,0,0,0,0,0,0,0,0,0,0,0,0,0,0,0,0,0,0,0,0,0,0,0,0,0,0,0,0,0,0,-0.0252,-0.0253,0,-0.0307,-0.0307,-0.0308,-0.0343,-0.0343,-0.0343,-0.0343,-0.0446,-0.0449,-0.0452,0,0,0,0,0,0,0,0,0,0,0,0,0,-0.0224,-0.0224,-0.0252,-0.0253,-0.0253,-0.0307,-0.0308,-0.0308,-0.0343,-0.0343,-0.0343,-0.0343,-0.0446,-0.0449,-0.0452,0,0,0,0,0,0,0,0,0,0,0,0,0,-0.0254,-0.0224,-0.0252,-0.0276,-0.0279,-0.0306,-0.0308,-0.0309,-0.0343,-0.0343,-0.0343,-0.0343,-0.0445,-0.0448,-0.0452,-0.0474,0,0,-0.0465,-0.0466,0,0,0,0,0,0,0,0,-0.0252,-0.0255,-0.0272,-0.0274,-0.0277,-0.0317,-0.0336,-0.0366,-0.0343,-0.0319,-0.0343,-0.0343,-0.0407,-0.0414,-0.0425,-0.0479,-0.0483,-0.0465,-0.0467,-0.0469,-0.047,0,0,0,0,0,0,0,-0.025,-0.0253,-0.0275,-0.0272,-0.0276,-0.03,-0.0304,-0.0342,-0.0363,-0.0321,-0.0324,-0.0328,-0.0409,-0.0421,-0.0428,-0.0485,-0.0465,-0.0468,-0.0471,-0.0472,-0.0568,-0.0568,0,0,0,0,0,0,-0.0239,-0.0251,-0.0273,-0.0276,-0.0264,-0.03,-0.0305,-0.0305,-0.0362,-0.037,-0.0328,-0.033,-0.0414,-0.0423,-0.0431,-0.0447,-0.0469,-0.0473,-0.0475,-0.0568,-0.0568,-0.0568,0,0,0,0,0,0,-0.0238,-0.024,-0.0271,-0.0265,-0.027,-0.03,-0.03,-0.0306,-0.0314,-0.0366,-0.0376,-0.033,-0.0414,-0.0426,-0.0459,-0.0452,-0.0474,-0.0478,-0.0568,-0.0568,-0.0568,-0.0487,0,0,0,0,0,0,-0.0237,-0.0239,-0.0235,-0.0263,-0.027,-0.0276,-0.03,-0.0307,-0.0316,-0.0319,-0.0371,-0.0381,-0.0415,-0.0453,-0.0463,-0.0458,-0.0481,-0.0568,-0.0568,-0.0568,-0.049,-0.0485,-0.048,0,0,0,0,0,-0.0235,-0.022,-0.0235,-0.0238,-0.0263,-0.0275,-0.028,-0.0304,-0.0316,-0.0313,-0.0351,-0.0379,-0.0462,-0.0456,-0.0468,-0.0464,-0.0567,-0.0568,-0.0568,-0.0492,-0.0486,-0.0481,0,0,0,0,0,0,-0.0203,-0.0223,-0.024,-0.0231,-0.0249,-0.028,-0.0278,-0.0298,-0.0325,-0.0328,-0.038,-0.0392,-0.0421,-0.0456,-0.0448,-0.0494,-0.052,-0.0523,-0.0458,-0.0453,-0.0448,-0.0413,-0.0485,0,0,0,0,0,-0.0195,-0.0191,-0.0217,-0.0211,-0.0217,-0.0249,-0.0257,-0.0272,-0.03,-0.0312,-0.035,-0.0393,-0.0433,-0.0451,-0.0492,-0.0514,-0.0535,-0.0522,-0.0517,-0.0513,-0.0493,-0.0531,-0.0527,-0.0569,-0.0569,-0.0569,0,0,-0.0181,-0.0192,-0.019,-0.0205,-0.0221,-0.0212,-0.0253,-0.0257,-0.0252,-0.032,-0.0328,-0.0379,-0.0437,-0.0462,-0.0478,-0.0488,-0.051,-0.0513,-0.0509,-0.0492,-0.053,-0.0526,-0.0522,-0.057,-0.057,-0.057,0,0,-0.0141,-0.016,-0.0139,-0.0149,-0.0166,-0.0184,-0.0181,-0.0209,-0.0225,-0.0245,-0.0294,-0.0335,-0.0392,-0.0428,-0.0455,-0.045,-0.0487,-0.0471,-0.0414,-0.045,-0.0446,-0.0443,-0.0451,-0.0449,-0.0465,-0.0465,-0.0465,0,-0.0122,-0.0099,-0.0135,-0.0117,-0.0113,-0.0163,-0.0134,-0.016,-0.0196,-0.0204,-0.0235,-0.0317,-0.0372,-0.0398,-0.0401,-0.0436,-0.0455,-0.0427,-0.0441,-0.0439,-0.0437,-0.0446,-0.0445,-0.0461,-0.0461,-0.0462,-0.0462,0,-0.0066,-0.0049,-0.0036,-0.0028,-0.0032,-0.0015,-0.005,-0.0061,-0.0092,-0.0118,-0.0156,-0.0235,-0.0278,-0.0313,-0.0357,-0.0373,-0.0389,-0.0432,-0.0447,-0.0427,-0.0439,-0.0439,-0.0455,-0.0457,-0.0458,-0.0459,0,0,-0.0011,0.0004,0.0011,0.0035,0.0021,0.0032,0.0031,0.0025,0.0042,-0.0027,-0.0012,-0.0111,-0.0156,-0.0191,-0.026,-0.03,-0.0311,-0.0353,-0.0356,-0.0343,-0.0368,-0.0375,-0.0376,-0.0359,-0.0359,-0.0359,-0.0375,0,0.0051,0.0114,0.0099,0.0161,0.0193,0.0151,0.0159,0.0139,0.0114,0.0112,0.0014,-0.0008,-0.0109,-0.0128,-0.0185,-0.0272,-0.0311,-0.0301,-0.0403,-0.0405,-0.0401,-0.0377,-0.0357,-0.037,-0.0375,-0.0376,-0.0376,0,0.0119,0.0154,0.0225,0.0264,0.0274,0.0293,0.0315,0.0321,0.0287,0.0265,0.0218,0.0145,0.0078,-0.0016,-0.0148,-0.0136,-0.0241,-0.0321,-0.0324,-0.0356,-0.0413,-0.0397,-0.0371,-0.058,-0.0377,-0.0377,-0.0377,0,0.0188,0.0248,0.0312,0.0324,0.035,0.0368,0.0381,0.0367,0.0405,0.0372,0.0395,0.0285,0.026,0.0104,-0.0068,-0.0107,-0.0202,-0.028,-0.0384,-0.0385,-0.0399,-0.0401,-0.0572,-0.0377,-0.0377,-0.0377,-0.0377,0,0.0263,0.0316,0.0349,0.0384,0.0466,0.0448,0.0532,0.052,0.0546,0.0633,0.0486,0.0535,0.0287,0.0196,0.0003,-0.0165,-0.0149,-0.0355,-0.0389,-0.037,-0.0369,-0.0578,-0.0713,-0.0378,-0.0377,-0.0377,-0.0377,0,0.0325,0.0344,0.0427,0.0476,0.05,0.0559,0.0647,0.0714,0.0708,0.0823,0.0821,0.0741,0.0628,0.038,0.016,-0.0039,-0.0348,-0.03,-0.0244,-0.0272,-0.0585,-0.0715,-0.0926,-0.1019,-0.0417,-0.0417,-0.0417,0,0.0361,0.0409,0.0504,0.0572,0.0599,0.0689,0.0759,0.0791,0.0891,0.0978,0.1056,0.0969,0.0963,0.0627,0.0251,-0.0078,-0.032,-0.0298,-0.0391,-0.0582,-0.0753,-0.0862,-0.0933,-0.0373,-0.0372,-0.0372,-0.0372,0,0.044,0.0469,0.0542,0.0679,0.0771,0.0893,0.1008,0.1117,0.1197,0.1305,0.1452,0.1454,0.1129,0.0821,0.0331,0.0072,-0.0453,-0.0306,-0.0529,-0.0745,-0.085,-0.096,-0.0369,-0.0371,-0.0371,-0.0371,-0.0371,-0.0371,0.0503,0.0573,0.0673,0.0807,0.0926,0.1093,0.1223,0.1381,0.1579,0.178,0.1768,0.1823,0.1321,0.0664,0.0285,-0.0417,-0.0451,-0.0637,-0.0777,-0.0867,-0.0973,-0.036,-0.0395,-0.0395,-0.0395,-0.0396,-0.0396,0,0.0593,0.0673,0.0801,0.0968,0.1122,0.1163,0.1393,0.1549,0.1822,0.2002,0.2139,0.1926,0.1312,0.0641,-0.0295,-0.0787,-0.0993,-0.1069,-0.1234,-0.1283,-0.075,-0.0764,-0.085,-0.085,-0.0849,-0.0849,-0.0849,-0.0849,0.0647,0.078,0.0846,0.1108,0.1235,0.1457,0.1604,0.1844,0.2022,0.2261,0.2308,0.2291,0.1767,0.011,-0.1004,-0.1258,-0.1622,-0.1707,-0.1881,-0.154,-0.151,-0.1483,-0.1528,-0.1772,-0.1774,-0.2341,-0.2347,-0.2351]}],[{"header":{"parameterUnit":"m.s-1","parameterCategory":2,"la1":30.2991,"la2":30.254,"lo1":-89.0895,"lo2":-89.0444,"dy":0.0017,"dx":0.0017,"nx":28,"ny":28,"refTime":"2025-11-23T09:00:00:Z","depth":"2","parameterNumber":2,"parameterNumberName":"U-component_of_CURRENTS"},"data":[0,0,0,0,0,0,0,0,0,0,0,0,0,0,0,0,0,0,0,0,0,0,0,0,0,0,0,0,0,0,0,0,0,0,0,0,0,0,0,0,0,0,0,0,0,0,0,0,0,0,0,0,0,0,0,0,0,0,0.3159,0.316,0,0.3221,0.3221,0.3222,0.3226,0.3225,0.3224,0.3224,0.3247,0.3248,0.3249,0,0,0,0,0,0,0,0,0,0,0,0,0,0.3066,0.3068,0.3159,0.316,0.3161,0.322,0.3221,0.3222,0.3226,0.3225,0.3224,0.3224,0.3247,0.3248,0.3249,0,0,0,0,0,0,0,0,0,0,0,0,0,0.3113,0.3068,0.3159,0.3171,0.3173,0.322,0.3221,0.3222,0.3226,0.3225,0.3224,0.3223,0.3246,0.3248,0.325,0.3276,0,0,0.3255,0.3255,0,0,0,0,0,0,0,0,0.3111,0.3116,0.3169,0.3171,0.3173,0.3216,0.3197,0.3239,0.3226,0.3204,0.3224,0.3223,0.3235,0.3237,0.3249,0.3277,0.3278,0.3255,0.3256,0.3257,0.3257,0,0,0,0,0,0,0,0.3107,0.3114,0.3182,0.317,0.3172,0.3181,0.3186,0.3205,0.3221,0.3206,0.3207,0.3216,0.3235,0.3247,0.3249,0.3279,0.3255,0.3256,0.3257,0.3258,0.3377,0.3379,0,0,0,0,0,0,0.3103,0.3111,0.318,0.3184,0.3141,0.3183,0.3189,0.3202,0.3222,0.3225,0.3217,0.3216,0.3245,0.3248,0.325,0.3331,0.3257,0.3258,0.3259,0.3375,0.3377,0.338,0,0,0,0,0,0,0.3101,0.3109,0.3178,0.315,0.3159,0.3186,0.32,0.3203,0.3229,0.3231,0.3233,0.324,0.3244,0.3248,0.328,0.333,0.3259,0.3261,0.3372,0.3376,0.3379,0.3461,0,0,0,0,0,0,0.3098,0.3108,0.3122,0.315,0.3161,0.3215,0.3201,0.3205,0.3236,0.3236,0.3251,0.3252,0.3244,0.3278,0.3282,0.3331,0.3262,0.337,0.3374,0.3378,0.3456,0.3467,0.3476,0,0,0,0,0,0.3095,0.3111,0.3122,0.3131,0.3177,0.3216,0.3223,0.3237,0.3238,0.3256,0.3267,0.3252,0.3307,0.3281,0.3285,0.3336,0.3368,0.3373,0.3377,0.3451,0.3465,0.3476,0,0,0,0,0,0,0.3071,0.3114,0.3127,0.3154,0.3189,0.3217,0.3237,0.3251,0.3276,0.3278,0.3275,0.3277,0.3326,0.332,0.3292,0.3383,0.3338,0.3343,0.3392,0.3405,0.3415,0.3425,0.3263,0,0,0,0,0,0.3077,0.3105,0.3143,0.3168,0.3187,0.3218,0.3239,0.3254,0.3277,0.3288,0.33,0.3319,0.335,0.3366,0.3384,0.3432,0.344,0.347,0.348,0.3489,0.3501,0.3553,0.3569,0.3396,0.3396,0.3395,0,0,0.3074,0.3103,0.3119,0.3167,0.3194,0.3234,0.3228,0.3268,0.3309,0.3287,0.3342,0.3354,0.337,0.3424,0.3446,0.3425,0.3545,0.3495,0.3502,0.351,0.356,0.3577,0.3592,0.3399,0.3398,0.3398,0,0,0.3085,0.3112,0.3142,0.3178,0.3229,0.3253,0.327,0.3313,0.3341,0.3391,0.3396,0.3432,0.3471,0.3498,0.3515,0.3594,0.3595,0.3612,0.3676,0.3727,0.3742,0.3755,0.3794,0.381,0.3619,0.3619,0.3619,0,0.3083,0.3123,0.3157,0.3198,0.3231,0.3265,0.3308,0.3349,0.3399,0.3429,0.3414,0.3507,0.3506,0.3596,0.3622,0.3617,0.3649,0.3626,0.3741,0.3754,0.3765,0.3803,0.3819,0.3624,0.3623,0.3623,0.3622,0,0.3117,0.3155,0.3176,0.3242,0.3287,0.3325,0.3388,0.3432,0.3463,0.35,0.3588,0.3608,0.3659,0.3678,0.3672,0.3776,0.3773,0.3745,0.3707,0.3788,0.3822,0.3837,0.363,0.3629,0.3627,0.3626,0,0,0.3092,0.3181,0.319,0.3225,0.3313,0.3346,0.3429,0.3505,0.3568,0.362,0.3696,0.3761,0.378,0.3803,0.3823,0.3873,0.3971,0.3856,0.3857,0.3893,0.4098,0.404,0.4051,0.3977,0.398,0.3982,0.4091,0,0.3107,0.3174,0.3229,0.33,0.3338,0.3406,0.348,0.3559,0.3631,0.3711,0.3764,0.3841,0.3832,0.3873,0.3926,0.3955,0.4016,0.3945,0.4017,0.4019,0.3956,0.4068,0.3752,0.3818,0.4105,0.4108,0.411,0,0.3117,0.3165,0.323,0.3325,0.3351,0.3406,0.353,0.3605,0.3731,0.3798,0.3895,0.3934,0.403,0.3997,0.4118,0.4081,0.4106,0.4124,0.4128,0.4056,0.3991,0.3783,0.3834,0.4135,0.4133,0.4131,0.413,0,0.3067,0.3162,0.3208,0.3243,0.336,0.341,0.348,0.3619,0.3704,0.3862,0.3929,0.4051,0.4109,0.4172,0.421,0.4179,0.4327,0.4271,0.4253,0.4248,0.3981,0.3948,0.4368,0.4368,0.4368,0.4368,0.4367,0,0.3052,0.3089,0.3184,0.3213,0.3283,0.3382,0.349,0.3594,0.3748,0.3843,0.3968,0.4069,0.4159,0.424,0.4262,0.4317,0.4372,0.4296,0.4287,0.4002,0.3971,0.4237,0.422,0.4372,0.4371,0.437,0.4369,0,0.2986,0.3051,0.3103,0.3217,0.326,0.3308,0.3476,0.3549,0.3723,0.3853,0.3903,0.4096,0.4218,0.4298,0.4404,0.4376,0.443,0.4435,0.4097,0.4047,0.4301,0.4287,0.4421,0.442,0.4419,0.4419,0.4418,0,0.2956,0.2972,0.308,0.3118,0.3171,0.3268,0.3331,0.3516,0.3605,0.3859,0.3898,0.4086,0.419,0.4349,0.436,0.4414,0.4465,0.4128,0.4003,0.4336,0.4314,0.4301,0.4289,0.368,0.3674,0.3668,0.3664,0,0.29,0.2933,0.2986,0.305,0.3112,0.3179,0.3288,0.3354,0.3556,0.367,0.3832,0.3942,0.4135,0.4067,0.4164,0.4142,0.4089,0.4023,0.4471,0.3723,0.3649,0.3623,0.3633,0.3617,0.3621,0.3625,0.3627,0.3629,0.2856,0.286,0.2927,0.2974,0.3039,0.3071,0.3076,0.3196,0.3296,0.3426,0.3633,0.3697,0.3797,0.3801,0.372,0.3659,0.3928,0.3728,0.374,0.3758,0.366,0.359,0.3528,0.3532,0.3535,0.3538,0.3541,0,0.2778,0.2806,0.2851,0.2886,0.2884,0.2966,0.3022,0.2988,0.3019,0.3192,0.3303,0.3135,0.3149,0.3239,0.3096,0.3123,0.3043,0.2978,0.2828,0.2881,0.2927,0.278,0.2417,0.2413,0.2409,0.2405,0,0,0.2746,0.2756,0.2762,0.2731,0.2744,0.268,0.2672,0.2648,0.2715,0.2719,0.2747,0.3025,0.317,0.2748,0.2717,0.2532,0.267,0.2439,0.3355,0.3233,0.3273,0.3394,0.3235,0,0,0,0,0]},{"header":{"parameterUnit":"m.s-1","parameterCategory":2,"la1":30.2991,"la2":30.254,"lo1":-89.0895,"lo2":-89.0444,"dy":0.0017,"dx":0.0017,"nx":28,"ny":28,"refTime":"2025-11-23T09:00:00:Z","depth":"2","parameterNumber":3,"parameterNumberName":"V-component_of_CURRENTS"},"data":[0,0,0,0,0,0,0,0,0,0,0,0,0,0,0,0,0,0,0,0,0,0,0,0,0,0,0,0,0,0,0,0,0,0,0,0,0,0,0,0,0,0,0,0,0,0,0,0,0,0,0,0,0,0,0,0,0,0,0.0055,0.0055,0,-0.0009,-0.001,-0.0011,-0.0065,-0.0066,-0.0066,-0.0066,-0.0156,-0.0158,-0.016,0,0,0,0,0,0,0,0,0,0,0,0,0,0.0064,0.0065,0.0056,0.0055,0.0054,-0.0009,-0.001,-0.0011,-0.0065,-0.0066,-0.0066,-0.0067,-0.0156,-0.0158,-0.0161,0,0,0,0,0,0,0,0,0,0,0,0,0,0.0034,0.0065,0.0056,0.0022,0.0018,-0.0008,-0.001,-0.0011,-0.0065,-0.0066,-0.0066,-0.0067,-0.0155,-0.0158,-0.0161,-0.017,0,0,-0.017,-0.0172,0,0,0,0,0,0,0,0,0.0036,0.0033,0.0027,0.0024,0.002,-0.0027,-0.004,-0.0064,-0.0065,-0.0037,-0.0066,-0.0067,-0.0113,-0.012,-0.0134,-0.0174,-0.0178,-0.0171,-0.0173,-0.0174,-0.0175,0,0,0,0,0,0,0,0.0038,0.0035,0.0027,0.0027,0.0022,-0.0013,-0.0018,-0.0045,-0.0074,-0.0039,-0.0042,-0.0045,-0.0116,-0.0131,-0.0137,-0.0179,-0.0171,-0.0173,-0.0175,-0.0176,-0.0226,-0.0226,0,0,0,0,0,0,0.0056,0.0038,0.0029,0.0026,0.003,-0.0012,-0.0018,-0.0014,-0.0073,-0.0082,-0.0044,-0.0047,-0.0126,-0.0133,-0.014,-0.014,-0.0174,-0.0177,-0.0178,-0.0227,-0.0226,-0.0226,0,0,0,0,0,0,0.0056,0.0056,0.0032,0.0032,0.0027,-0.0011,-0.0007,-0.0015,-0.0028,-0.0076,-0.0086,-0.0049,-0.0126,-0.0136,-0.0155,-0.0145,-0.0178,-0.0181,-0.0227,-0.0227,-0.0226,-0.0149,0,0,0,0,0,0,0.0057,0.0057,0.0061,0.0034,0.0028,0.003,-0.0006,-0.0015,-0.0028,-0.0032,-0.0084,-0.0093,-0.0128,-0.015,-0.0158,-0.0149,-0.0183,-0.0228,-0.0227,-0.0226,-0.0152,-0.0145,-0.014,0,0,0,0,0,0.0058,0.0079,0.0062,0.0061,0.0037,0.0032,0.0025,-0.0006,-0.0027,-0.0023,-0.006,-0.0091,-0.015,-0.0152,-0.0162,-0.0154,-0.0229,-0.0227,-0.0226,-0.0155,-0.0147,-0.014,0,0,0,0,0,0,0.0089,0.0075,0.0056,0.0072,0.0056,0.0024,0.0024,0.0001,-0.0026,-0.0033,-0.0083,-0.0094,-0.0109,-0.014,-0.0141,-0.0165,-0.0195,-0.0196,-0.0137,-0.013,-0.0124,-0.0098,-0.0186,0,0,0,0,0,0.0098,0.0107,0.0085,0.0097,0.0092,0.0056,0.0047,0.0028,0.0003,-0.001,-0.0046,-0.0084,-0.0112,-0.0126,-0.0157,-0.0167,-0.02,-0.0169,-0.0163,-0.0157,-0.0142,-0.0185,-0.0181,-0.0222,-0.0222,-0.0222,0,0,0.0113,0.0106,0.011,0.0103,0.0084,0.0096,0.0049,0.0047,0.0053,-0.0015,-0.0021,-0.0065,-0.0111,-0.0123,-0.0133,-0.0146,-0.0164,-0.0156,-0.0151,-0.0139,-0.0183,-0.0179,-0.0176,-0.0221,-0.0221,-0.0221,0,0,0.0157,0.0142,0.0165,0.0158,0.0143,0.0126,0.013,0.0101,0.0083,0.0072,0.0024,-0.0006,-0.0051,-0.0078,-0.0098,-0.0075,-0.0132,-0.0093,-0.0039,-0.008,-0.0077,-0.0075,-0.0112,-0.0114,-0.0088,-0.0088,-0.0087,0,0.0173,0.0202,0.0171,0.0192,0.0198,0.0147,0.0178,0.0155,0.0123,0.0118,0.0083,0.0018,-0.0025,-0.0036,-0.0033,-0.006,-0.0096,-0.0062,-0.0072,-0.007,-0.0069,-0.0108,-0.0111,-0.0084,-0.0084,-0.0085,-0.0085,0,0.0236,0.0256,0.0271,0.0282,0.0283,0.0301,0.0273,0.0265,0.0232,0.0207,0.0179,0.0111,0.0077,0.0051,0.0014,0.0003,-0.0029,-0.0061,-0.0087,-0.006,-0.0103,-0.0107,-0.0078,-0.008,-0.0081,-0.0082,0,0,0.0282,0.0311,0.0316,0.0342,0.0335,0.0349,0.0357,0.0359,0.0374,0.0311,0.0323,0.0249,0.02,0.0174,0.0113,0.0071,0.004,0.0013,0.0009,-0.0018,-0.0053,-0.008,-0.0088,0.0,-0.0,-0.0,-0.0086,0,0.0341,0.0413,0.0405,0.047,0.0506,0.0471,0.0488,0.0476,0.045,0.0445,0.0359,0.034,0.025,0.0231,0.0175,0.0081,0.0032,0.0067,-0.008,-0.0084,-0.0107,-0.0093,-0.0066,-0.0141,-0.0091,-0.0092,-0.0092,0,0.0406,0.0449,0.0526,0.0575,0.0586,0.0608,0.0635,0.0648,0.0618,0.0596,0.0549,0.0477,0.041,0.0326,0.0174,0.0196,0.0082,-0.0004,-0.001,-0.0061,-0.0119,-0.0161,-0.0151,-0.01,-0.0099,-0.0099,-0.0098,0,0.0466,0.0534,0.0604,0.062,0.066,0.0681,0.0698,0.0691,0.0728,0.0694,0.0707,0.0597,0.0558,0.04,0.0211,0.0191,0.004,-0.001,-0.0143,-0.0147,-0.0164,-0.0168,-0.0119,-0.0118,-0.0118,-0.0118,-0.0118,0,0.0538,0.0592,0.0638,0.0675,0.076,0.0753,0.0832,0.0828,0.085,0.0911,0.0789,0.0804,0.0572,0.0452,0.026,0.0054,0.0073,-0.0125,-0.0168,-0.0137,-0.0138,-0.0135,-0.0135,-0.0121,-0.0121,-0.012,-0.0119,0,0.0594,0.0621,0.0709,0.0768,0.0791,0.0851,0.0936,0.0998,0.0992,0.1068,0.1064,0.0968,0.0809,0.0567,0.0322,0.0137,-0.0069,-0.0152,-0.0099,-0.0134,-0.0244,-0.0239,-0.0305,-0.0307,-0.0308,-0.0309,-0.031,0,0.0631,0.0681,0.0781,0.0845,0.0874,0.0962,0.103,0.1066,0.115,0.1176,0.123,0.1098,0.1032,0.066,0.0311,-0.0023,-0.0071,-0.0226,-0.0264,-0.0226,-0.0261,-0.0255,-0.0249,-0.0261,-0.0261,-0.0262,-0.0262,0,0.0706,0.0734,0.0809,0.0939,0.1026,0.1146,0.1247,0.1338,0.139,0.144,0.1491,0.1436,0.1084,0.0758,0.0291,0.0055,-0.0173,-0.0245,-0.0215,-0.0214,-0.0191,-0.0223,-0.0217,-0.0265,-0.0265,-0.0265,-0.0265,-0.0264,0.0759,0.0826,0.0921,0.1048,0.1161,0.1312,0.1417,0.1535,0.1666,0.1752,0.1694,0.1615,0.1239,0.065,0.0239,-0.0203,-0.0184,-0.034,-0.0336,-0.0333,-0.0308,-0.0289,-0.0377,-0.0377,-0.0378,-0.0378,-0.0378,0,0.0833,0.0908,0.1027,0.118,0.1315,0.1362,0.1554,0.1654,0.181,0.1879,0.1903,0.154,0.1163,0.0719,0.0075,-0.0306,-0.0344,-0.0437,-0.0388,-0.0382,-0.0377,-0.0353,-0.0435,-0.0436,-0.0437,-0.0438,0,0,0.0874,0.0997,0.1059,0.1284,0.1394,0.1577,0.1691,0.1828,0.1917,0.1978,0.1937,0.1848,0.1309,0.0842,0.0318,-0.0055,-0.0137,-0.0143,-0.0057,0.0069,0.0079,-0.0281,-0.0233,0,0,0,0,0]}],[{"header":{"parameterUnit":"m.s-1","parameterCategory":2,"la1":30.2991,"la2":30.254,"lo1":-89.0895,"lo2":-89.0444,"dy":0.0017,"dx":0.0017,"nx":28,"ny":28,"refTime":"2025-11-23T09:00:00:Z","depth":"4","parameterNumber":2,"parameterNumberName":"U-component_of_CURRENTS"},"data":[0,0,0,0,0,0,0,0,0,0,0,0,0,0,0,0,0,0,0,0,0,0,0,0,0,0,0,0,0,0,0,0,0,0,0,0,0,0,0,0,0,0,0,0,0,0,0,0,0,0,0,0,0,0,0,0,0,0,0.1996,0.1997,0,0.2086,0.2087,0.2088,0.2169,0.217,0.2171,0.2172,0.2264,0.2265,0.2267,0,0,0,0,0,0,0,0,0,0,0,0,0,0.1878,0.188,0.1996,0.1997,0.1999,0.2086,0.2087,0.2088,0.2168,0.217,0.2171,0.2173,0.2264,0.2265,0.2267,0,0,0,0,0,0,0,0,0,0,0,0,0,0.1942,0.188,0.1996,0.2051,0.2057,0.2086,0.2087,0.2088,0.2168,0.217,0.2172,0.2173,0.2263,0.2265,0.2267,0.2244,0,0,0.2273,0.2274,0,0,0,0,0,0,0,0,0.1939,0.1946,0.2042,0.2047,0.2054,0.212,0.2079,0.2141,0.2168,0.2123,0.2172,0.2174,0.2216,0.2222,0.2232,0.2248,0.2252,0.2273,0.2275,0.2275,0.2276,0,0,0,0,0,0,0,0.1934,0.1943,0.2029,0.2043,0.2051,0.2066,0.2077,0.2091,0.2157,0.2127,0.2134,0.2147,0.222,0.223,0.2235,0.2254,0.2273,0.2275,0.2276,0.2277,0.2395,0.2397,0,0,0,0,0,0,0.1927,0.1939,0.2026,0.2032,0.2002,0.2067,0.2079,0.2095,0.2157,0.2169,0.2146,0.2151,0.2225,0.2232,0.2238,0.234,0.2275,0.2277,0.2279,0.2393,0.2396,0.2398,0,0,0,0,0,0,0.1924,0.1934,0.2023,0.1989,0.2002,0.2068,0.2084,0.2096,0.2153,0.2171,0.2183,0.2197,0.2227,0.2235,0.2295,0.2339,0.2278,0.228,0.2391,0.2394,0.2397,0.2463,0,0,0,0,0,0,0.192,0.1932,0.196,0.1989,0.2004,0.2068,0.2083,0.2097,0.2157,0.2166,0.2218,0.2226,0.2229,0.2292,0.2297,0.2341,0.2282,0.2389,0.2392,0.2396,0.2458,0.2467,0.2475,0,0,0,0,0,0.1916,0.1939,0.1961,0.1973,0.2034,0.2069,0.2079,0.2129,0.2158,0.2187,0.2229,0.2227,0.2319,0.2295,0.23,0.2346,0.2387,0.2391,0.2395,0.2454,0.2465,0.2475,0,0,0,0,0,0,0.1905,0.1951,0.1975,0.2014,0.2054,0.2085,0.2123,0.2152,0.2207,0.2231,0.2247,0.2257,0.2328,0.2326,0.2299,0.2392,0.2354,0.236,0.2397,0.2408,0.2416,0.242,0.2283,0,0,0,0,0,0.1913,0.1946,0.1987,0.2023,0.2048,0.2093,0.2123,0.2157,0.2199,0.2228,0.2264,0.2304,0.234,0.2367,0.2394,0.2438,0.2449,0.2473,0.2482,0.2489,0.2497,0.2549,0.2564,0.2412,0.2412,0.2412,0,0,0.1919,0.195,0.1971,0.2024,0.2062,0.21,0.2117,0.2175,0.2217,0.2226,0.2307,0.2338,0.236,0.2418,0.2449,0.2428,0.2541,0.2495,0.2501,0.2505,0.2556,0.257,0.2583,0.2415,0.2414,0.2414,0,0,0.1929,0.1978,0.2006,0.2044,0.2108,0.2135,0.2161,0.2219,0.2265,0.233,0.2355,0.2415,0.2466,0.2494,0.2511,0.2582,0.2587,0.2598,0.2645,0.2697,0.2709,0.2721,0.2763,0.2777,0.2601,0.2601,0.2601,0,0.194,0.1978,0.2021,0.2058,0.2097,0.2155,0.2195,0.2241,0.2314,0.2352,0.2371,0.2479,0.2501,0.2569,0.2601,0.2602,0.2631,0.2602,0.2708,0.2719,0.273,0.277,0.2785,0.2605,0.2604,0.2604,0.2603,0,0.1959,0.2009,0.2033,0.2098,0.2143,0.2191,0.2254,0.2316,0.2378,0.242,0.252,0.2561,0.2624,0.2645,0.2648,0.2738,0.2735,0.2714,0.2679,0.2749,0.2787,0.2802,0.261,0.2609,0.2607,0.2607,0,0,0.1932,0.2027,0.2041,0.208,0.2173,0.2206,0.2289,0.2367,0.2434,0.2514,0.2597,0.2672,0.2711,0.2734,0.2756,0.2804,0.2907,0.2801,0.2802,0.2839,0.303,0.2854,0.2852,0.2912,0.2915,0.2917,0.303,0,0.1941,0.2003,0.2057,0.2132,0.2172,0.2255,0.2324,0.2408,0.2491,0.2585,0.2653,0.2746,0.2739,0.2798,0.2843,0.2901,0.2948,0.2879,0.296,0.2962,0.2793,0.2864,0.2926,0.3041,0.3044,0.3046,0.3048,0,0.1937,0.1983,0.2052,0.2153,0.2183,0.2244,0.2371,0.2444,0.2577,0.2649,0.2749,0.2812,0.292,0.29,0.3024,0.2988,0.3018,0.3046,0.305,0.287,0.2812,0.2955,0.3074,0.3072,0.307,0.3068,0.3067,0,0.1877,0.1979,0.2034,0.2071,0.2193,0.2256,0.2335,0.2468,0.2548,0.2711,0.2795,0.2908,0.3004,0.306,0.313,0.3098,0.3253,0.3205,0.307,0.3059,0.3154,0.3141,0.3282,0.3282,0.3282,0.3282,0.3281,0,0.1843,0.1892,0.202,0.2049,0.2134,0.2238,0.235,0.2448,0.2603,0.2697,0.2834,0.2924,0.3056,0.3153,0.3176,0.3173,0.3292,0.3091,0.3077,0.318,0.3169,0.3165,0.315,0.3286,0.3285,0.3284,0.3283,0,0.176,0.1845,0.1917,0.2057,0.2108,0.2174,0.2351,0.2425,0.2596,0.2728,0.2795,0.2983,0.3107,0.3206,0.332,0.3225,0.3246,0.3212,0.3342,0.3331,0.3004,0.2992,0.3057,0.3052,0.3048,0.3044,0.3041,0,0.1716,0.1747,0.1904,0.195,0.2022,0.214,0.2217,0.2401,0.2481,0.2733,0.2778,0.298,0.3079,0.31,0.321,0.3246,0.3204,0.3183,0.3058,0.3002,0.2984,0.2978,0.2971,0.3034,0.3033,0.3031,0.303,0,0.1627,0.1706,0.1766,0.1867,0.1957,0.2038,0.2166,0.2213,0.2421,0.2603,0.2704,0.2779,0.2914,0.299,0.3053,0.3064,0.3174,0.3135,0.3142,0.3025,0.2975,0.2959,0.2958,0.3015,0.3017,0.3019,0.3019,0,0.1569,0.1589,0.1684,0.1759,0.1861,0.19,0.1986,0.2084,0.219,0.2462,0.2493,0.2702,0.2885,0.2899,0.2955,0.296,0.2899,0.2776,0.28,0.2819,0.2687,0.2585,0.2504,0,0,0,0,0,0.1496,0.1502,0.1563,0.1632,0.1727,0.1787,0.1933,0.2024,0.2231,0.2239,0.2359,0.2471,0.2565,0.2678,0.2636,0.2847,0.2908,0.2783,0.2776,0.2929,0.2947,0.2812,0,0,0,0,0,0,0.1445,0.1491,0.1515,0.1511,0.1535,0.1618,0.1703,0.184,0.1859,0.208,0.2152,0.2315,0.2453,0.2568,0.2588,0.262,0.2561,0.2917,0.291,0.2919,0.2935,0.295,0.2817,0,0,0,0,0]},{"header":{"parameterUnit":"m.s-1","parameterCategory":2,"la1":30.2991,"la2":30.254,"lo1":-89.0895,"lo2":-89.0444,"dy":0.0017,"dx":0.0017,"nx":28,"ny":28,"refTime":"2025-11-23T09:00:00:Z","depth":"4","parameterNumber":3,"parameterNumberName":"V-component_of_CURRENTS"},"data":[0,0,0,0,0,0,0,0,0,0,0,0,0,0,0,0,0,0,0,0,0,0,0,0,0,0,0,0,0,0,0,0,0,0,0,0,0,0,0,0,0,0,0,0,0,0,0,0,0,0,0,0,0,0,0,0,0,0,0.0141,0.0141,0,0.0099,0.0099,0.0098,0.006,0.0059,0.0059,0.0058,-0.0001,-0.0002,-0.0003,0,0,0,0,0,0,0,0,0,0,0,0,0,0.0145,0.0145,0.0141,0.0141,0.014,0.0099,0.0099,0.0098,0.006,0.0059,0.0059,0.0058,-0.0,-0.0002,-0.0003,0,0,0,0,0,0,0,0,0,0,0,0,0,0.0126,0.0145,0.0141,0.0117,0.0114,0.0099,0.0099,0.0098,0.006,0.0059,0.0059,0.0058,0.0,-0.0001,-0.0003,-0.0004,0,0,-0.0009,-0.001,0,0,0,0,0,0,0,0,0.0128,0.0126,0.0121,0.0119,0.0116,0.0085,0.0078,0.0063,0.006,0.0079,0.0058,0.0058,0.0028,0.0023,0.0015,-0.0006,-0.0009,-0.0009,-0.001,-0.0011,-0.0012,0,0,0,0,0,0,0,0.0129,0.0128,0.0123,0.012,0.0117,0.0094,0.0091,0.0075,0.0056,0.0078,0.0075,0.0072,0.0026,0.0017,0.0014,-0.001,-0.0009,-0.0011,-0.0012,-0.0013,-0.0034,-0.0033,0,0,0,0,0,0,0.0139,0.0129,0.0125,0.0122,0.0122,0.0094,0.0091,0.0095,0.0056,0.005,0.0073,0.0071,0.0021,0.0016,0.0012,0.0022,-0.0011,-0.0013,-0.0014,-0.0034,-0.0034,-0.0033,0,0,0,0,0,0,0.014,0.014,0.0126,0.0125,0.0122,0.0095,0.0099,0.0094,0.0088,0.0053,0.0046,0.0073,0.002,0.0014,0.0004,0.0019,-0.0014,-0.0015,-0.0035,-0.0034,-0.0033,0.0034,0,0,0,0,0,0,0.014,0.014,0.0146,0.0126,0.0122,0.0128,0.01,0.0094,0.0087,0.0084,0.0051,0.0044,0.0019,0.0007,0.0002,0.0016,-0.0017,-0.0036,-0.0035,-0.0034,0.0031,0.0037,0.0042,0,0,0,0,0,0.0141,0.0158,0.0146,0.0146,0.0131,0.0129,0.0125,0.0102,0.0088,0.0093,0.0068,0.0046,0.001,0.0006,0.0,0.0014,-0.0036,-0.0035,-0.0034,0.0029,0.0036,0.0042,0,0,0,0,0,0,0.0163,0.0155,0.0142,0.0155,0.0145,0.0123,0.0125,0.0109,0.0093,0.0089,0.0053,0.0046,0.004,0.0019,0.0016,0.001,-0.0017,-0.0017,0.0032,0.0039,0.0044,0.0061,-0.0018,0,0,0,0,0,0.0171,0.0181,0.0165,0.0176,0.0173,0.0149,0.0144,0.0131,0.0114,0.0107,0.0083,0.0058,0.0041,0.0034,0.0013,0.0014,-0.0023,0.0018,0.0024,0.0029,0.0037,-0.0009,-0.0007,-0.0029,-0.0029,-0.0029,0,0,0.0183,0.0179,0.0184,0.0181,0.0169,0.0181,0.0145,0.0146,0.0155,0.0103,0.0107,0.0075,0.0044,0.0042,0.0038,0.0027,0.0014,0.003,0.0035,0.0041,-0.0007,-0.0005,-0.0003,-0.0028,-0.0029,-0.0029,0,0,0.0217,0.0208,0.0228,0.0225,0.0217,0.0206,0.021,0.0192,0.0182,0.018,0.0144,0.0124,0.01,0.0081,0.0068,0.0093,0.0042,0.0085,0.0131,0.0086,0.0088,0.0089,0.004,0.0036,0.0092,0.0092,0.0092,0,0.023,0.0254,0.0233,0.0251,0.0258,0.0223,0.0249,0.0237,0.0217,0.0215,0.0191,0.0149,0.012,0.0118,0.0125,0.0106,0.0069,0.011,0.0094,0.0094,0.0093,0.0044,0.0038,0.0096,0.0095,0.0095,0.0095,0,0.0277,0.0296,0.0309,0.0322,0.0327,0.0343,0.0327,0.0325,0.0305,0.0289,0.0274,0.0226,0.0204,0.0189,0.0165,0.0156,0.0125,0.0102,0.0078,0.01,0.0046,0.0039,0.0101,0.0099,0.0098,0.0097,0,0,0.0307,0.0338,0.0342,0.0365,0.0367,0.038,0.0394,0.0399,0.0412,0.0372,0.038,0.0338,0.0303,0.0285,0.0245,0.0207,0.0167,0.0161,0.0157,0.0117,0.0062,0.0043,0.0033,0.0138,0.0138,0.0137,0.0024,0,0.035,0.0408,0.0409,0.0464,0.0494,0.0474,0.0493,0.049,0.0474,0.0469,0.0409,0.0399,0.0343,0.0332,0.0285,0.0198,0.0153,0.02,0.0045,0.004,0.0023,0.0026,0.0135,0.0019,0.0017,0.0016,0.0015,0,0.0394,0.0431,0.0497,0.0543,0.0554,0.0579,0.0606,0.0619,0.0598,0.0584,0.0552,0.0499,0.0445,0.0389,0.0249,0.028,0.0182,0.0105,0.0099,0.0055,0.0009,-0.0008,0.0002,0.0003,0.0004,0.0005,0.0005,0,0.043,0.0491,0.0551,0.0566,0.0609,0.0635,0.0655,0.0655,0.0682,0.0659,0.0664,0.058,0.0541,0.0411,0.0252,0.0248,0.0084,0.0057,-0.0056,-0.0059,-0.0038,-0.0038,-0.0045,-0.0045,-0.0045,-0.0044,-0.0044,0,0.0473,0.0521,0.0576,0.0607,0.0682,0.0689,0.0757,0.0758,0.0774,0.081,0.073,0.0722,0.0544,0.0426,0.0274,0.009,0.0096,-0.0047,-0.0087,-0.0008,-0.0003,-0.0044,-0.0042,-0.0049,-0.0048,-0.0047,-0.0046,0,0.0501,0.0534,0.061,0.0674,0.0702,0.0754,0.0836,0.088,0.0883,0.0923,0.092,0.0825,0.067,0.048,0.026,0.0127,-0.0051,-0.012,-0.002,-0.0053,-0.0173,-0.0166,-0.0255,-0.0257,-0.0258,-0.0259,-0.026,0,0.0519,0.0561,0.0662,0.0715,0.0751,0.0835,0.0893,0.0933,0.0983,0.0983,0.1,0.0872,0.078,0.0466,0.0253,-0.0042,-0.0088,-0.0187,-0.0182,-0.0163,-0.0193,-0.0185,-0.0176,-0.0262,-0.0263,-0.0263,-0.0263,0,0.0555,0.059,0.0653,0.0765,0.0845,0.0944,0.1026,0.1071,0.1109,0.1115,0.1066,0.0901,0.0722,0.047,0.0239,0.0026,-0.0125,-0.0202,-0.0201,-0.0197,-0.0173,-0.0199,-0.019,-0.0268,-0.0267,-0.0267,-0.0267,0,0.0578,0.0626,0.0709,0.0807,0.0912,0.101,0.106,0.1111,0.1157,0.1149,0.1126,0.0934,0.0823,0.0504,0.0293,0.008,0.0019,-0.0057,-0.0065,-0.0063,0.0023,0.0083,0.0035,0,0,0,0,0,0.0597,0.0652,0.0744,0.0852,0.0957,0.1022,0.1128,0.1167,0.1202,0.118,0.1158,0.0991,0.0674,0.0541,0.0326,0.0248,-0.0029,-0.0014,-0.0123,-0.0294,-0.0288,-0.0223,0,0,0,0,0,0,0.0609,0.0693,0.0741,0.0868,0.0946,0.1068,0.114,0.117,0.1159,0.1158,0.1001,0.0922,0.0622,0.0798,0.0317,0.0252,0.0148,-0.0157,-0.0163,-0.0297,-0.0292,-0.0287,-0.0219,0,0,0,0,0]}]]